Погода в Кугейском

Россия / Ростовская область     46°27′49″N   40°30′37″E
темп.,
°C
ветер,
м/с
пор.,
м/с
влажн.,
%
обл.,
%
осадки,
мм/ч
давл.,
гПа
погр.,
м
15 апреля, чт
чт1500:00+8зюз22919 0.0 101715
03:00+7ююз11915 0.0 101710
06:00+7ю229250 0.0 101818
09:00+12ююз23758 0.0 1018384
12:00+16юз34568 0.0 10171127
15:00+18зюз455050 0.0 10171908
18:00+15з346794 0.2 1017146
21:00+12ююв118112 2.1 101811
16 апреля, пт
пт1600:00+10зюз228944 0.0 101821
03:00+9з2392100 0.0 101851
06:00+8з2279100 0.0 101934
09:00+12юз226095 0.0 1019361
12:00+16зюз1254100 0.0 1019906
15:00+10зсз7993100 3.7 1019492
18:00+10сз239135 5.2 1019257
21:00+8зюз119461 5.2 102112
17 апреля, сб
сб1700:00+9ю2293100 0.0 102063
03:00+9зюз3593100 0.0 1020169
06:00+7з379826 0.4 1021220
09:00+11зюз46745 0.4 1022635
12:00+14з455765 0.0 10221576
15:00+14з4450100 0.0 10221582
18:00+13зюз34606 0.0 1022243
21:00+9з34743 0.0 102357
18 апреля, вс
вс1800:00+7с22750 0.0 102226
03:00+6св227596 0.0 102126
06:00+6в3578100 0.0 102185
09:00+8вюв3680100 0.1 1020201
12:00+8всв2590100 0.8 1019188
15:00+9св2594100 2.6 1019211
18:00+9ссв2596100 3.4 1019201
21:00+9св3795100 3.6 1018235
19 апреля, пн
пн1900:00+9св3697100 0.3 1018205
03:00+9св3596100 0.6 1017173
06:00+8св3795100 0.0 1017242
09:00+10св3591100 0.0 1017300
12:00+12всв3480100 0.0 1017507
15:00+13в4579100 0.6 1015551
18:00+10в2597100 2.9 1015213
21:00+11всв51096100 5.2 1013373